Santuari del Coll - Susqueda





Hora UTC 04:35
Temperatura 11.0 ºC
Humitat 93.0 %
Pressió 1014.4 hPa
Pluja 0.0 mm
Velocitat vent 1.6 km/h
Direcció vent E

Dades diàries 2020-05-30



Hora UTC (hivern +1h; estiu +2h)
Temperatura (ºC) Humitat (%) Pressió (hPa) Velocitat vent (km/h) Precipitació (mm)
Hora UTC Aire Humitat Pressió Vel. Dir. Vel. Max Dir. Intent. màx 5 min.
00:05 11.8 89.0 1014.8 3.2 SSE 3.2 0.0
00:10 11.7 89.0 1014.8 4.8 SE 9.7 0.0
00:15 11.6 90.0 1014.8 4.8 SE 9.7 0.0
00:20 11.6 90.0 1014.8 3.2 SSE 11.3 0.0
00:25 11.6 90.0 1014.8 3.2 SE 12.9 0.0
00:30 11.6 91.0 1014.8 3.2 ESE 12.9 0.0
00:35 11.7 91.0 1014.8 6.4 SE 9.7 0.0
00:40 11.7 91.0 1014.8 6.4 SE 8.0 0.0
00:45 11.7 91.0 1014.7 3.2 SE 11.3 0.0
00:50 11.6 91.0 1014.7 3.2 SE 11.3 0.0
00:55 11.6 92.0 1014.6 1.6 SE 6.4 0.0
01:00 11.5 92.0 1014.6 3.2 SE 6.4 0.0
01:05 11.4 91.0 1014.7 1.6 SE 4.8 0.0
01:10 11.4 92.0 1014.6 1.6 ESE 4.8 0.0
01:15 11.4 92.0 1014.6 4.8 ESE 4.8 0.0
01:20 11.4 92.0 1014.6 0.0 ESE 6.4 0.0
01:25 11.4 92.0 1014.6 3.2 E 4.8 0.0
01:30 11.5 92.0 1014.7 1.6 E 4.8 0.0
01:35 11.6 92.0 1014.6 1.6 E 6.4 0.0
01:40 11.6 92.0 1014.7 1.6 E 11.3 0.0
01:45 11.7 92.0 1014.7 6.4 E 12.9 0.0
01:50 11.7 92.0 1014.7 3.2 E 12.9 0.0
01:55 11.7 92.0 1014.7 6.4 E 11.3 0.0
02:00 11.7 92.0 1014.7 4.8 E 11.3 0.0
02:05 11.7 93.0 1014.7 1.6 E 9.7 0.0
02:10 11.7 93.0 1014.7 6.4 ESE 12.9 0.0
02:15 11.7 93.0 1014.8 4.8 ESE 12.9 0.0
02:20 11.6 93.0 1014.7 1.6 E 6.4 0.0
02:25 11.7 93.0 1014.7 3.2 ESE 6.4 0.0
02:30 11.6 93.0 1014.6 3.2 ESE 6.4 0.0
02:35 11.6 93.0 1014.6 1.6 ESE 6.4 0.0
02:40 11.6 93.0 1014.6 1.6 E 6.4 0.0
02:45 11.6 93.0 1014.7 1.6 E 3.2 0.0
02:50 11.6 93.0 1014.6 1.6 SE 6.4 0.0
02:55 11.6 93.0 1014.6 3.2 ESE 9.7 0.0
03:00 11.6 93.0 1014.4 4.8 ESE 9.7 0.0
03:05 11.6 93.0 1014.4 3.2 ESE 11.3 0.0
03:10 11.6 93.0 1014.4 3.2 SE 11.3 0.0
03:15 11.5 93.0 1014.4 3.2 ESE 11.3 0.0
03:20 11.5 93.0 1014.4 6.4 SE 9.7 0.0
03:25 11.4 93.0 1014.5 4.8 ESE 9.7 0.0
03:30 11.4 93.0 1014.5 4.8 ESE 9.7 0.0
03:35 11.4 93.0 1014.4 6.4 ESE 8.0 0.0
03:40 11.4 93.0 1014.5 3.2 SE 8.0 0.0
03:45 11.4 93.0 1014.5 4.8 SE 8.0 0.0
03:50 11.3 93.0 1014.6 0.0 SE 8.0 0.0
03:55 11.2 93.0 1014.6 0.0 SE 3.2 0.0
04:00 11.2 93.0 1014.5 0.0 SE 3.2 0.0
04:05 11.2 93.0 1014.5 0.0 SE 3.2 0.0
04:10 11.1 93.0 1014.5 0.0 SE 3.2 0.0
04:15 11.1 93.0 1014.5 0.0 E 4.8 0.0
04:20 11.1 93.0 1014.5 1.6 E 4.8 0.0
04:25 11.1 93.0 1014.4 1.6 E 3.2 0.0
04:30 11.0 93.0 1014.5 1.6 E 4.8 0.0
04:35 11.0 93.0 1014.4 1.6 E 4.8 0.0
Màxima 11.8 93.0 1014.8 6.4 ESE 12.9 0.0
Mínima 11.0 89.0 1014.4
Total 0.0